Location: Trois-Rivi�res
(46.3500°N, 72.5500°W)
Time: 06:49:33
(UTC-05:00)

Tiangong 2 - Visible Passes

Search period start: 23 January 2018 00:00
Search period end: 02 February 2018 00:00
Orbit: 384 x 390 km, 42.8° (Epoch: 23 January)

Date Brightness Start Highest point End Pass type
(mag) Time Alt. Az. Time Alt. Az. Time Alt. Az.
23 Jan 2.6 05:09:36 33° SE 05:09:36 33° SE 05:11:56 10° E visible
23 Jan 2.2 06:42:27 10° WSW 06:45:28 39° S 06:48:28 10° ESE visible
24 Jan 1.9 05:45:53 32° SW 05:46:49 43° S 05:49:52 10° ESE visible
25 Jan 3.6 04:49:51 22° ESE 04:49:51 22° ESE 04:51:12 10° ESE visible
25 Jan 2.4 06:22:07 12° WSW 06:24:38 32° SSW 06:27:32 10° SE visible
26 Jan 2.0 05:26:05 38° S 05:26:05 38° S 05:29:00 10° ESE visible
27 Jan 4.4 04:30:02 12° ESE 04:30:02 12° ESE 04:30:22 10° ESE visible
27 Jan 2.7 06:02:18 17° WSW 06:03:44 24° SSW 06:06:23 10° SE visible
28 Jan 3.1 05:06:17 23° SSE 05:06:17 23° SSE 05:08:00 10° SE visible
28 Jan 3.6 06:40:23 10° SW 06:41:18 11° SSW 06:42:13 10° SSW visible
29 Jan 3.1 05:42:34 16° SSW 05:42:46 17° SSW 05:44:53 10° SSE visible
30 Jan 4.2 04:46:38 11° SSE 04:46:38 11° SSE 04:46:46 10° SE visible
